Flag for U.S.A. Weather past 2 weeks in Sterling Heights, Michigan, U.S.A.

Now
78 °F

Broken clouds.


Feels Like: 79 °F
Forecast: 55 / 78 °F
Wind: 15 mph from Southwest

Location: Selfridge Air National Guard Base

Current Time: Sep 20, 2014 at 6:27:55 PM

Latest Report: Sep 20, 2014 at 5:55 PM


Visibility: 12 mi

Pressure: 29.78 "Hg

Humidity: 59%

Dew point: 62 °F

Location of Sterling HeightsLocation

Historic Weather in Sterling Heights — Graph

°F

Sterling Heights temperature yesterday

Maximum temperature yesterday: 63 °F (at 3:55 PM)
Minimum temperature yesterday: 38 °F (at 5:58 AM)
Average temperature yesterday: 52 °F

Past Weeks' High & Low Weather Summary

 TemperatureHumidityPressure
High91 °F (Sep 5, 3:55 PM)100% (Sep 6, 6:01 AM)30.38 "Hg (Sep 6, 6:01 AM)
Low38 °F (Sep 19, 5:58 AM)42% (Sep 17, 1:55 PM)29.57 "Hg (Sep 10, 10:58 PM)
Average59 °F77%30.10 "Hg
* Reported Sep 5 3:55 PM — Sep 20 3:55 PM, Sterling Heights, Weather by CustomWeather, © 2014

Note: Actual official high and low records may vary slightly from our data, if they occured in-between our weather recording intervals... More about our weather records

Advertising

Sterling Heights weather history for previous 24 hours

 ConditionsComfort  
Time TempWeatherWind HumidityBarometerVisibility
3:55 PM
Sep 20
78 °FPartly sunny.16 mph60%29.83 "Hg12 mi
2:55 PM79 °FBroken clouds.15 mph54%29.85 "Hg12 mi
1:55 PM77 °FPartly sunny.20 mph59%29.85 "Hg12 mi
8:55 AM63 °FMore clouds than sun.9 mph76%29.98 "Hg10 mi
7:55 AM59 °FPartly cloudy.8 mph81%29.99 "Hg10 mi
6:58 AM57 °FOvercast.9 mph91%29.98 "Hg10 mi
5:58 AM54 °FPassing clouds.2 mph100%29.99 "Hg10 mi
4:58 AM55 °FClear.5 mph99%29.98 "Hg10 mi
3:58 AM57 °FClear.8 mph98%29.98 "Hg10 mi
2:58 AM56 °FClear.9 mph100%29.99 "Hg10 mi
1:58 AM54 °FClear.6 mph100%30.02 "Hg7 mi
1:03 AM54 °FClear.2 mph100%30.01 "Hg9 mi
12:58 AM54 °FClear.3 mph100%30.02 "Hg10 mi
11:58 PM
Sep 19
54 °FClear.5 mph100%30.05 "Hg10 mi
10:58 PM55 °FClear.6 mph100%30.07 "Hg10 mi
9:58 PM57 °FClear.8 mph99%30.08 "Hg10 mi
8:58 PM57 °FClear.10 mph97%30.09 "Hg10 mi
7:55 PM57 °FPartly sunny.8 mph92%30.11 "Hg12 mi
6:55 PM60 °FPartly sunny.10 mph81%30.12 "Hg12 mi
Weather by CustomWeather, © 2014

See weather overviewHow to use our weather pages